Torna al catalogo

STARLINK-37064

AttivoComunicazioniSSO
NORAD 68157·PAYLOAD·🇺🇸 United States

Lanciato Mar 13, 2026 da Vandenberg Space Force Base

Loading…

Prossimi Passaggi (prossime 24 ore)

TLE

AggiornatoSource: CelesTrak SupGP

Epoca: Sep 14, 2026, 23:25 UTC

1 68157C 26049R   26257.97618056  .00047050  00000+0  14605-2 0  2572
2 68157  97.2836 278.0573 0001301  87.1104  49.6970 15.33416941    15

Traccia STARLINK-37064 in tempo reale con AllMySat

Download on the App Store